Regional Weather Roundup
Issued by NWS

Home | Current Version | Previous Version | Graphics & Text | Print | Product List | Glossary On
Versions: 1 2 3 4 5 6 7 8 9 10 11 12 13 14 15 16 17 18 19 20 21 22 23 24 25 26 27 28 29 30 31 32 33 34 35 36 37 38 39 40 41 42 43 44 45 46 47 48 49 50
000
ASUS44 KMEG 140510
RWRTN
TENNESSEE HOURLY STATE WEATHER ROUNDUP
NATIONAL WEATHER SERVICE MEMPHIS TN
1200 AM CDT MON JUL 14 2014

TNZ002-004-019-021-049-052-054-088>092-140600-
WEST TENNESSEE

CITY           SKY/WX    TMP DP  RH WIND       PRES   REMARKS
MEMPHIS INTL   PTCLDY    82  74  76 S7        29.99F
NWS MEMPHIS      N/A     82 N/A N/A MISG        N/A
JACKSON        PTCLDY    79  73  82 S7        29.99S
DYERSBURG      PTCLDY    79  64  61 CALM      29.98R
UNION CITY     CLEAR     79  73  83 S5        29.96R
PARIS          CLEAR     75  71  87 SW6       29.98S
LEXINGTON      CLEAR     79  73  83 S6        29.99F
SAVANNAH       CLEAR     75  75 100 SE3       30.02F
$$

TNZ008-025-027-028-033-062-065-066-140600-
NORTH MIDDLE TENNESSEE

CITY           SKY/WX    TMP DP  RH WIND       PRES   REMARKS
NASHVILLE      PTCLDY    82  72  71 S8        30.00F
DICKSON        CLEAR     79  72  78 SW9       30.01F
PORTLAND       MOCLDY    79  72  78 S7        29.99F
CLARKSVILLE    CLEAR     81  72  74 SW8       29.97F
LEBANON        CLEAR     79  70  74 S3        29.99F
SMYRNA         CLEAR     79  72  79 S5        30.01F
MURFREESBORO   CLEAR     81  70  69 S6        30.01F
COOKEVILLE     CLEAR     75  72  88 CALM      30.04S
GALLATIN       CLEAR     80  72  76 CALM      30.01F
CROSSVILLE     CLEAR     72  68  87 VRB3      30.10F
$$

TNZ061-075-076-078-094-096-097-140600-
SOUTH MIDDLE TENNESSEE

CITY           SKY/WX    TMP DP  RH WIND       PRES   REMARKS
LEWISBURG      CLEAR     77  68  73 CALM      30.03S
FAYETTEVILLE   CLEAR     75  72  88 S6        30.06F
TULLAHOMA      CLEAR     73  70  88 S5        30.07F
WINCHESTER     CLEAR     73  72  94 CALM      30.06F
MCMINNVILLE    CLEAR     77  75  94 S5        30.05F
COLUMBIA       CLEAR     79  73  83 SW6       30.01F
SHELBYVILLE    CLEAR     75  73  94 S5        30.05S
$$

TNZ017-018-042-046-047-140600-
NORTHEAST TENNESSEE

CITY           SKY/WX    TMP DP  RH WIND       PRES   REMARKS
TRI CITIES     MOCLDY    72  67  84 CALM      30.07S
ELIZABETHTON   CLEAR     68  66  94 CALM      30.08S
$$

TNZ012-013-036-069-073-074-140600-
CENTRAL EAST TENNESSEE

CITY           SKY/WX    TMP DP  RH WIND       PRES   REMARKS
KNOXVILLE      PTCLDY    76  71  85 S7        30.04S
OAK RIDGE      CLEAR     75  72  90 SW3       30.05S
GATLINBURG     CLEAR     73  68  83 CALM      30.04S
MORRISTOWN     CLEAR     77  72  83 CALM      30.06F
$$

TNZ083-085-099-140600-
SOUTHEAST TENNESSEE

CITY           SKY/WX    TMP DP  RH WIND       PRES   REMARKS
CHATTANOOGA    CLEAR     78  71  79 CALM      30.05S
$$

SKY/WX REPORTED AS FAIR MEANS FEW OR NO CLOUDS BELOW
12 THOUSAND FEET.




USA.gov is the U.S. government's official web portal to all federal, state and local government web resources and services.